Weather History for KHFJ - January, 2014

Change the Weather History Date:

Monday, January 6, 2014

  Actual Average (KJLN) Record (KJLN)
Temperature  
Mean Temperature -1 °F 35 °F  
Max Temperature 5 °F 44 °F 74 °F (2008)
Min Temperature -7 °F 25 °F -9 °F (2014)
Degree Days  
Heating Degree Days 66 30  
Month to date heating degree days 180  
Since 1 July heating degree days 1797  
Cooling Degree Days 0 0  
Month to date cooling degree days 0  
Year to date cooling degree days 0  
Moisture  
Dew Point -11 °F    
Average Humidity 59    
Maximum Humidity 71    
Minimum Humidity 46    
Precipitation  
Precipitation 0.00 in 0.07 in 0.47 in (1998)
Month to date precipitation 0.43  
Year to date precipitation 0.43  
Sea Level Pressure  
Sea Level Pressure 30.49 in    
Wind  
Wind Speed 9 mph (West)    
Max Wind Speed 17 mph    
Max Gust Speed 22 mph    
Visibility 10 miles    
Events      
T = Trace of Precipitation, MM = Missing Value Source: NWS Daily Summary

Daily Weather History Graph

Daily Weather History Graph

Search for Another Location

Airport or City:

Trip Planner

Search our weather history database for the weather conditions in past years. The results will help you decide how hot, cold, wet, or windy it might be!

Date:

Astronomy

Jan. 06, 2014 Rise Set
Actual Time 7:29 AM CST 5:14 PM CST
Civil Twilight 7:00 AM CST 5:43 PM CST
Nautical Twilight 6:28 AM CST 6:15 PM CST
Astronomical Twilight 5:57 AM CST 6:47 PM CST
Moon 10:54 AM CST (1/6) 11:38 PM CST (1/6)
Length of Visible Light 10h 42m
Length of Day
9h 45m
Waxing Crescent, 35% of the Moon is Illuminated
Jan 6
Waxing Crescent
Jan 7
First Quarter
Jan 15
Full
Jan 23
Last Quarter
Jan 30
New

Hourly Weather History & Observations

Time (CST) Temp. Windchill Dew Point Humidity Pressure Visibility Wind Dir Wind Speed Gust Speed Precip Events Conditions
12:15 AM 1.4 °F -9.9 °F -7.6 °F 66% 30.44 in 10.0 mi WNW 5.8 mph - N/A   Clear
12:35 AM 3.2 °F -7.8 °F -5.8 °F 66% 30.44 in 10.0 mi WNW 5.8 mph - N/A   Clear
12:55 AM 3.2 °F -9.1 °F -5.8 °F 66% 30.44 in 10.0 mi WNW 6.9 mph - N/A   Clear
1:15 AM 1.4 °F -12.5 °F -7.6 °F 66% 30.45 in 10.0 mi WNW 8.1 mph - N/A   Clear
1:35 AM 1.4 °F -12.5 °F -7.6 °F 66% 30.45 in 10.0 mi WNW 8.1 mph - N/A   Clear
1:55 AM 1.4 °F -9.9 °F -7.6 °F 66% 30.46 in 10.0 mi WNW 5.8 mph - N/A   Clear
2:15 AM 1.4 °F -12.5 °F -7.6 °F 66% 30.47 in 10.0 mi West 8.1 mph - N/A   Clear
2:35 AM 1.4 °F -13.5 °F -7.6 °F 66% 30.47 in 10.0 mi West 9.2 mph - N/A   Clear
3:15 AM 1.4 °F -16.1 °F -7.6 °F 66% 30.48 in 10.0 mi WNW 12.7 mph - N/A   Clear
3:35 AM 1.4 °F -15.3 °F -9.4 °F 61% 30.47 in 10.0 mi WNW 11.5 mph - N/A   Clear
3:55 AM -0.4 °F -15.7 °F -9.4 °F 66% 30.49 in 10.0 mi NW 9.2 mph - N/A   Clear
4:15 AM -0.4 °F -15.7 °F -9.4 °F 66% 30.48 in 10.0 mi WNW 9.2 mph 17.3 mph N/A   Clear
4:35 AM -0.4 °F -14.7 °F -9.4 °F 66% 30.49 in 10.0 mi WNW 8.1 mph - N/A   Clear
4:55 AM -2.2 °F -14.2 °F -11.2 °F 66% 30.49 in 10.0 mi NW 5.8 mph - N/A   Clear
5:15 AM -2.2 °F -18.9 °F -11.2 °F 66% 30.49 in 10.0 mi NW 10.4 mph 17.3 mph N/A   Clear
5:35 AM -4.0 °F -17.8 °F -13.0 °F 65% 30.50 in 10.0 mi NW 6.9 mph - N/A   Clear
5:55 AM -5.8 °F -19.9 °F -13.0 °F 71% 30.51 in 10.0 mi WNW 6.9 mph - N/A   Clear
6:15 AM -4.0 °F -19.0 °F -14.8 °F 60% 30.51 in 10.0 mi WNW 8.1 mph - N/A   Clear
6:35 AM -5.8 °F -23.4 °F -14.8 °F 65% 30.51 in 10.0 mi WNW 10.4 mph - N/A   Clear
6:55 AM -5.8 °F -22.4 °F -16.6 °F 60% 30.52 in 10.0 mi WNW 9.2 mph - N/A   Clear
7:15 AM -5.8 °F -21.2 °F -18.4 °F 55% 30.52 in 10.0 mi NW 8.1 mph - N/A   Clear
7:35 AM -5.8 °F -22.4 °F -18.4 °F 55% 30.53 in 10.0 mi NW 9.2 mph - N/A   Clear
7:55 AM -7.6 °F -18.8 °F -18.4 °F 59% 30.53 in 10.0 mi WNW 4.6 mph - N/A   Clear
8:15 AM -7.6 °F -23.4 °F -18.4 °F 59% 30.54 in 10.0 mi West 8.1 mph - N/A   Clear
8:35 AM -5.8 °F -21.2 °F -18.4 °F 55% 30.54 in 10.0 mi West 8.1 mph - N/A   Clear
8:55 AM -5.8 °F -21.2 °F -18.4 °F 55% 30.56 in 10.0 mi West 8.1 mph - N/A   Clear
9:15 AM -4.0 °F -21.2 °F -16.6 °F 55% 30.57 in 10.0 mi West 10.4 mph - N/A   Clear
9:35 AM -4.0 °F -21.2 °F -16.6 °F 55% 30.58 in 10.0 mi WNW 10.4 mph - N/A   Clear
9:55 AM -2.2 °F -22.2 °F -16.6 °F 50% 30.58 in 10.0 mi WNW 15.0 mph - N/A   Clear
10:15 AM -0.4 °F -18.4 °F -16.6 °F 46% 30.58 in 10.0 mi WNW 12.7 mph - N/A   Clear
10:35 AM -0.4 °F -20.5 °F -16.6 °F 46% 30.58 in 10.0 mi WNW 16.1 mph 19.6 mph N/A   Clear
10:55 AM -0.4 °F -19.2 °F -14.8 °F 51% 30.55 in 10.0 mi West 13.8 mph 18.4 mph N/A   Clear
11:15 AM 1.4 °F -17.6 °F -14.8 °F 47% 30.54 in 10.0 mi WNW 15.0 mph 20.7 mph N/A   Clear
11:35 AM 1.4 °F -14.5 °F -14.8 °F 47% 30.53 in 10.0 mi West 10.4 mph - N/A   Clear
11:55 AM 3.2 °F -15.3 °F -13.0 °F 47% 30.53 in 10.0 mi West 15.0 mph - N/A   Clear
12:15 PM 3.2 °F -13.1 °F -13.0 °F 47% 30.51 in 10.0 mi WNW 11.5 mph - N/A   Clear
12:35 PM 3.2 °F -14.6 °F -13.0 °F 47% 30.50 in 10.0 mi WNW 13.8 mph - N/A   Clear
12:55 PM 3.2 °F -12.2 °F -13.0 °F 47% 30.50 in 10.0 mi West 10.4 mph - N/A   Clear
1:15 PM 5.0 °F -12.3 °F -11.2 °F 47% 30.50 in 10.0 mi WSW 13.8 mph - N/A   Clear
1:35 PM 5.0 °F -14.2 °F -11.2 °F 47% 30.49 in 10.0 mi WSW 17.3 mph - N/A   Clear
1:55 PM 5.0 °F -14.2 °F -9.4 °F 52% 30.50 in 10.0 mi West 17.3 mph 21.9 mph N/A   Clear
2:15 PM 5.0 °F -13.0 °F -11.2 °F 47% 30.49 in 10.0 mi WSW 15.0 mph 20.7 mph N/A   Clear
2:35 PM 5.0 °F -13.0 °F -11.2 °F 47% 30.49 in 10.0 mi West 15.0 mph - N/A   Clear
2:55 PM 5.0 °F -12.3 °F -11.2 °F 47% 30.49 in 10.0 mi West 13.8 mph - N/A   Clear
3:15 PM 5.0 °F -12.3 °F -11.2 °F 47% 30.49 in 10.0 mi WSW 13.8 mph - N/A   Clear
3:35 PM 5.0 °F -13.6 °F -9.4 °F 52% 30.48 in 10.0 mi West 16.1 mph 19.6 mph N/A   Clear
3:55 PM 5.0 °F -13.6 °F -9.4 °F 52% 30.48 in 10.0 mi West 16.1 mph 19.6 mph N/A   Clear
4:15 PM 5.0 °F -11.6 °F -9.4 °F 52% 30.48 in 10.0 mi West 12.7 mph 19.6 mph N/A   Clear
4:35 PM 5.0 °F -9.1 °F -9.4 °F 52% 30.48 in 10.0 mi West 9.2 mph - N/A   Clear
4:55 PM 5.0 °F -9.1 °F -9.4 °F 52% 30.47 in 10.0 mi WSW 9.2 mph - N/A   Clear
5:15 PM 3.2 °F -7.8 °F -9.4 °F 56% 30.47 in 10.0 mi WSW 5.8 mph - N/A   Clear
5:35 PM 3.2 °F -9.1 °F -9.4 °F 56% 30.47 in 10.0 mi West 6.9 mph - N/A   Clear
5:55 PM 3.2 °F -7.8 °F -9.4 °F 56% 30.47 in 10.0 mi West 5.8 mph - N/A   Clear
6:15 PM 3.2 °F -4.2 °F -9.4 °F 56% 30.47 in 10.0 mi WSW 3.5 mph - N/A   Clear
6:35 PM 1.4 °F -6.2 °F -9.4 °F 61% 30.47 in 10.0 mi WSW 3.5 mph - N/A   Clear
6:55 PM 3.2 °F -4.2 °F -9.4 °F 56% 30.47 in 10.0 mi West 3.5 mph - N/A   Clear
7:15 PM 1.4 °F -8.3 °F -9.4 °F 61% 30.47 in 10.0 mi West 4.6 mph - N/A   Clear
7:35 PM -0.4 °F -8.3 °F -9.4 °F 66% 30.49 in 10.0 mi SW 3.5 mph - N/A   Clear
7:55 PM -0.4 °F -8.3 °F -9.4 °F 66% 30.49 in 10.0 mi SW 3.5 mph - N/A   Clear
8:15 PM -0.4 °F -10.4 °F -9.4 °F 66% 30.49 in 10.0 mi SW 4.6 mph - N/A   Clear
8:35 PM -0.4 °F -10.4 °F -9.4 °F 66% 30.50 in 10.0 mi SW 4.6 mph - N/A   Clear
8:55 PM -0.4 °F -12.0 °F -9.4 °F 66% 30.49 in 10.0 mi SW 5.8 mph - N/A   Clear
9:15 PM -0.4 °F -10.4 °F -9.4 °F 66% 30.49 in 10.0 mi SSW 4.6 mph - N/A   Clear
9:35 PM -0.4 °F -10.4 °F -9.4 °F 66% 30.47 in 10.0 mi SSW 4.6 mph - N/A   Clear
9:55 PM -0.4 °F -8.3 °F -9.4 °F 66% 30.47 in 10.0 mi SSW 3.5 mph - N/A   Clear
10:15 PM -0.4 °F -8.3 °F -9.4 °F 66% 30.46 in 10.0 mi South 3.5 mph - N/A   Clear
10:35 PM -0.4 °F -10.4 °F -9.4 °F 66% 30.46 in 10.0 mi South 4.6 mph - N/A   Clear
10:55 PM -0.4 °F -8.3 °F -9.4 °F 66% 30.45 in 10.0 mi South 3.5 mph - N/A   Clear
11:15 PM -2.2 °F -12.5 °F -9.4 °F 71% 30.44 in 10.0 mi South 4.6 mph - N/A   Clear
11:35 PM -2.2 °F -10.4 °F -9.4 °F 71% 30.44 in 10.0 mi South 3.5 mph - N/A   Clear
11:55 PM -0.4 °F -12.0 °F -9.4 °F 66% 30.43 in 10.0 mi South 5.8 mph - N/A   Clear